Flag for U.S.A. Weather past 2 weeks in Davis, California, U.S.A.

Now
64 °F

Clear.


Feels Like: 64 °F
Forecast: 63 / 91 °F
Wind: 12 mph from South

Location: Sacramento International Airport

Current Time: Jul 5, 2015 at 2:48:33 AM

Latest Report: Jul 5, 2015 at 1:53 AM


Visibility: 10 mi

Pressure: 29.76 "Hg

Humidity: 78%

Dew point: 57 °F

Location of DavisLocation

Historic Weather in Davis — Graph

°F

Davis temperature yesterday

Maximum temperature yesterday: 100 °F (at 3:53 PM)
Minimum temperature yesterday: 64 °F (at 4:53 AM)
Average temperature yesterday: 79 °F

Past Weeks' High & Low Weather Summary

 TemperatureHumidityPressure
High105 °F (Jun 30, 5:53 PM)84% (Jun 21, 4:53 AM)30.00 "Hg (Jun 21, 4:53 AM)
Low53 °F (Jun 23, 5:53 AM)12% (Jun 30, 4:53 PM)29.68 "Hg (Jul 4, 6:53 PM)
Average78 °F46%29.84 "Hg
* Reported Jun 20 12:53 AM — Jul 5 12:53 AM, Davis, Weather by CustomWeather, © 2015

Note: Actual official high and low records may vary slightly from our data, if they occured in-between our weather recording intervals... More about our weather records

Advertising

Davis weather history for previous 24 hours

 ConditionsComfort  
Time TempWeatherWind HumidityBarometerVisibility
12:53 AM
Sun, Jul 5
66 °FClear.14 mph70%29.77 "Hg10 mi
11:53 PM
Sat, Jul 4
68 °FClear.14 mph65%29.76 "Hg10 mi
10:53 PM72 °FClear.12 mph57%29.76 "Hg10 mi
9:53 PM73 °FPassing clouds.13 mph57%29.73 "Hg10 mi
8:53 PM78 °FPassing clouds.9 mph52%29.71 "Hg10 mi
7:53 PM85 °FScattered clouds.13 mph45%29.70 "Hg10 mi
6:53 PM94 °FScattered clouds.12 mph38%29.68 "Hg10 mi
5:53 PM97 °FScattered clouds.13 mph36%29.69 "Hg10 mi
4:53 PM98 °FPartly sunny.14 mph31%29.70 "Hg10 mi
3:53 PM100 °FScattered clouds.10 mph28%29.71 "Hg10 mi
2:53 PM99 °FPassing clouds.7 mph29%29.72 "Hg10 mi
1:53 PM96 °FPassing clouds.5 mph31%29.75 "Hg10 mi
12:53 PM90 °FScattered clouds.No wind38%29.77 "Hg10 mi
11:53 AM85 °FScattered clouds.3 mph45%29.78 "Hg10 mi
10:53 AM81 °FScattered clouds.5 mph49%29.79 "Hg10 mi
9:53 AM75 °FScattered clouds.6 mph58%29.81 "Hg10 mi
8:53 AM70 °FScattered clouds.7 mph66%29.81 "Hg10 mi
7:53 AM65 °FScattered clouds.8 mph76%29.81 "Hg10 mi
6:53 AM64 °FScattered clouds.8 mph78%29.79 "Hg10 mi
5:53 AM64 °FPassing clouds.8 mph78%29.79 "Hg10 mi
4:53 AM64 °FPassing clouds.8 mph78%29.78 "Hg10 mi
3:53 AM67 °FPassing clouds.9 mph71%29.78 "Hg10 mi
2:53 AM67 °FPassing clouds.9 mph71%29.78 "Hg10 mi
Weather by CustomWeather, © 2015

See weather overviewHow to use our weather pages